Weather History for Fort Payne, AL

Change the Weather History Date:

Friday, September 20, 2013

  Actual Average (KRMG) Record (KRMG)
Temperature  
Mean Temperature 72 °F 71 °F  
Max Temperature 84 °F 83 °F 98 °F (2005)
Min Temperature 59 °F 59 °F 51 °F (1996)
Degree Days  
Heating Degree Days 0 1  
Month to date heating degree days 1  
Since 1 July heating degree days 1  
Cooling Degree Days 6 6  
Month to date cooling degree days 176  
Year to date cooling degree days 1542  
Growing Degree Days 22 (Base 50)    
Moisture  
Dew Point 60 °F    
Average Humidity 71    
Maximum Humidity 94    
Minimum Humidity 37    
Precipitation  
Precipitation 0.00 in 0.12 in 0.90 in (2002)
Month to date precipitation 2.09  
Year to date precipitation 37.51  
Sea Level Pressure  
Sea Level Pressure 30.01 in    
Wind  
Wind Speed 1 mph (SSW)    
Max Wind Speed 8 mph    
Max Gust Speed -    
Visibility 8 miles    
Events Rain    
T = Trace of Precipitation, MM = Missing Value Source: NWS Daily Summary

Daily Weather History Graph

Daily Weather History Graph

Search for Another Location

Airport:

Trip Planner

Search our weather history database for the weather conditions in past years. The results will help you decide how hot, cold, wet, or windy it might be!

Date:

Astronomy

Sep. 20, 2013 Rise Set
Actual Time 6:29 AM CDT 6:42 PM CDT
Civil Twilight 6:04 AM CDT 7:07 PM CDT
Nautical Twilight 5:35 AM CDT 7:36 PM CDT
Astronomical Twilight 5:05 AM CDT 8:06 PM CDT
Moon 7:21 PM CDT (9/20) 7:38 AM CDT (9/20)
Length of Visible Light 13h 02m
Length of Day
12h 12m
Full, 98% of the Moon is Illuminated
Sep 20
Full
Sep 26
Last Quarter
Oct 4
New
Oct 11
First Quarter
Oct 18
Full

Hourly Weather History & Observations

Time (CDT) Temp. Heat Index Dew Point Humidity Pressure Visibility Wind Dir Wind Speed Gust Speed Precip Events Conditions
12:15 AM 62.6 °F - 60.8 °F 94% 30.09 in 4.0 mi Calm Calm - N/A   Clear
12:35 AM 62.6 °F - 60.8 °F 94% 30.09 in 5.0 mi Calm Calm - N/A   Clear
12:55 AM 62.6 °F - 60.8 °F 94% 30.08 in 4.0 mi Calm Calm - N/A   Clear
1:15 AM 62.6 °F - 60.8 °F 94% 30.08 in 4.0 mi Calm Calm - N/A   Clear
1:35 AM 60.8 °F - 59.0 °F 94% 30.08 in 5.0 mi Calm Calm - N/A   Clear
1:55 AM 62.6 °F - 59.0 °F 88% 30.08 in 5.0 mi Calm Calm - N/A   Clear
2:15 AM 62.6 °F - 59.0 °F 88% 30.08 in 5.0 mi Calm Calm - N/A   Clear
2:35 AM 60.8 °F - 59.0 °F 94% 30.08 in 4.0 mi Calm Calm - N/A   Clear
2:55 AM 60.8 °F - 59.0 °F 94% 30.08 in 7.0 mi Calm Calm - N/A   Clear
3:15 AM 60.8 °F - 59.0 °F 94% 30.08 in 5.0 mi Calm Calm - N/A   Clear
3:35 AM 60.8 °F - 59.0 °F 94% 30.08 in 5.0 mi Calm Calm - N/A   Clear
3:55 AM 60.8 °F - 59.0 °F 94% 30.08 in 5.0 mi Calm Calm - N/A   Clear
4:15 AM 60.8 °F - 59.0 °F 94% 30.08 in 4.0 mi Calm Calm - N/A   Clear
4:35 AM 60.8 °F - 59.0 °F 94% 30.07 in 5.0 mi Calm Calm - N/A   Clear
4:55 AM 60.8 °F - 59.0 °F 94% 30.07 in 5.0 mi Calm Calm - N/A   Clear
5:15 AM 60.8 °F - 59.0 °F 94% 30.08 in 5.0 mi Calm Calm - N/A   Clear
5:35 AM 60.8 °F - 59.0 °F 94% 30.08 in 5.0 mi Calm Calm - N/A   Clear
5:55 AM 60.8 °F - 57.2 °F 88% 30.08 in 5.0 mi Calm Calm - N/A   Clear
6:15 AM 59.0 °F - 57.2 °F 94% 30.08 in 4.0 mi Calm Calm - N/A   Clear
6:35 AM 59.0 °F - 57.2 °F 94% 30.08 in 4.0 mi Calm Calm - N/A   Clear
6:55 AM 59.0 °F - 57.2 °F 94% 30.09 in 3.0 mi Calm Calm - N/A   Clear
7:15 AM 60.8 °F - 57.2 °F 88% 30.09 in 4.0 mi Calm Calm - N/A   Clear
7:35 AM 60.8 °F - 59.0 °F 94% 30.09 in 4.0 mi Calm Calm - N/A   Clear
7:55 AM 62.6 °F - 60.8 °F 94% 30.09 in 5.0 mi Calm Calm - N/A   Clear
8:15 AM 64.4 °F - 60.8 °F 88% 30.09 in 7.0 mi Calm Calm - N/A   Clear
8:35 AM 66.2 °F - 60.8 °F 83% 30.09 in 10.0 mi Calm Calm - N/A   Clear
8:55 AM 68.0 °F - 62.6 °F 83% 30.09 in 10.0 mi Calm Calm - N/A   Clear
9:15 AM 71.6 °F - 60.8 °F 69% 30.09 in 10.0 mi Calm Calm - N/A   Clear
9:35 AM 73.4 °F - 60.8 °F 65% 30.08 in 10.0 mi Calm Calm - N/A   Clear
9:55 AM 77.0 °F - 60.8 °F 57% 30.08 in 10.0 mi Calm Calm - N/A   Clear
10:15 AM 77.0 °F - 59.0 °F 54% 30.08 in 10.0 mi WSW 3.5 mph - N/A   Clear
10:35 AM 78.8 °F - 60.8 °F 54% 30.07 in 10.0 mi SW 5.8 mph - N/A   Clear
10:55 AM 78.8 °F - 59.0 °F 51% 30.06 in 10.0 mi SSW 5.8 mph - N/A   Clear
11:15 AM 80.6 °F 81.1 °F 59.0 °F 48% 30.05 in 10.0 mi SSW 3.5 mph - N/A   Clear
11:35 AM 80.6 °F 81.1 °F 59.0 °F 48% 30.04 in 10.0 mi Calm Calm - N/A   Clear
11:55 AM 82.4 °F 82.5 °F 59.0 °F 45% 30.03 in 10.0 mi WSW 4.6 mph - N/A   Clear
12:15 PM 82.4 °F 82.5 °F 59.0 °F 45% 30.02 in 10.0 mi Calm Calm - N/A   Clear
12:35 PM 82.4 °F 82.0 °F 57.2 °F 42% 30.01 in 10.0 mi SW 6.9 mph - N/A   Clear
12:55 PM 82.4 °F 82.5 °F 59.0 °F 45% 30.00 in 10.0 mi SSE 5.8 mph - N/A   Clear
1:15 PM 82.4 °F 82.0 °F 57.2 °F 42% 29.99 in 10.0 mi SSW 5.8 mph - N/A   Clear
1:35 PM 82.4 °F 81.7 °F 55.4 °F 39% 29.98 in 10.0 mi SSE 5.8 mph - N/A   Clear
1:55 PM 84.2 °F 83.0 °F 55.4 °F 37% 29.97 in 10.0 mi SE 8.1 mph - N/A   Clear
2:15 PM 82.4 °F 81.7 °F 55.4 °F 39% 29.96 in 10.0 mi South 3.5 mph - N/A   Clear
2:35 PM 84.2 °F 83.0 °F 55.4 °F 37% 29.96 in 10.0 mi South 5.8 mph - N/A   Clear
2:55 PM 82.4 °F 81.7 °F 55.4 °F 39% 29.95 in 10.0 mi SSW 4.6 mph - N/A   Clear
3:15 PM 84.2 °F 83.5 °F 57.2 °F 40% 29.94 in 10.0 mi Calm Calm - N/A   Clear
3:35 PM 84.2 °F 83.5 °F 57.2 °F 40% 29.93 in 10.0 mi SW 5.8 mph - N/A   Scattered Clouds
3:55 PM 82.4 °F 82.0 °F 57.2 °F 42% 29.93 in 10.0 mi South 6.9 mph - N/A   Clear
4:15 PM 82.4 °F 82.5 °F 59.0 °F 45% 29.93 in 10.0 mi SSE 3.5 mph - N/A   Clear
4:35 PM 82.4 °F 82.5 °F 59.0 °F 45% 29.92 in 10.0 mi South 4.6 mph - N/A   Clear
4:55 PM 82.4 °F 82.5 °F 59.0 °F 45% 29.92 in 10.0 mi South 3.5 mph - N/A   Clear
5:15 PM 80.6 °F 81.1 °F 59.0 °F 48% 29.92 in 10.0 mi South 4.6 mph - N/A   Clear
5:35 PM 80.6 °F 81.5 °F 60.8 °F 51% 29.91 in 10.0 mi Calm Calm - N/A   Clear
5:55 PM 80.6 °F 81.5 °F 60.8 °F 51% 29.91 in 10.0 mi Calm Calm - N/A   Clear
6:15 PM 78.8 °F - 62.6 °F 57% 29.90 in 10.0 mi Calm Calm - N/A   Clear
6:35 PM 78.8 °F - 62.6 °F 57% 29.90 in 10.0 mi Calm Calm - N/A   Clear
6:55 PM 75.2 °F - 62.6 °F 65% 29.90 in 10.0 mi Calm Calm - N/A   Clear
7:15 PM 73.4 °F - 64.4 °F 73% 29.90 in 10.0 mi Calm Calm - N/A   Clear
7:35 PM 73.4 °F - 62.6 °F 69% 29.91 in 10.0 mi Calm Calm - N/A   Clear
7:55 PM 71.6 °F - 64.4 °F 78% 29.91 in 10.0 mi Calm Calm - N/A   Clear
8:15 PM 69.8 °F - 64.4 °F 83% 29.92 in 10.0 mi Calm Calm - N/A   Clear
8:35 PM 69.8 °F - 64.4 °F 83% 29.92 in 10.0 mi Calm Calm - N/A   Clear
8:55 PM 69.8 °F - 64.4 °F 83% 29.92 in 10.0 mi Calm Calm - N/A   Clear
9:15 PM 69.8 °F - 64.4 °F 83% 29.92 in 10.0 mi Calm Calm - N/A   Clear
9:35 PM 69.8 °F - 64.4 °F 83% 29.92 in 10.0 mi Calm Calm - N/A   Clear
9:55 PM 69.8 °F - 64.4 °F 83% 29.92 in 10.0 mi Calm Calm - N/A   Clear
10:15 PM 69.8 °F - 64.4 °F 83% 29.92 in 10.0 mi Calm Calm - N/A Rain Light Rain
10:35 PM 69.8 °F - 64.4 °F 83% 29.92 in 10.0 mi Calm Calm - N/A   Clear
10:55 PM 69.8 °F - 64.4 °F 83% 29.92 in 10.0 mi Calm Calm - N/A   Scattered Clouds
11:15 PM 71.6 °F - 64.4 °F 78% 29.91 in 10.0 mi Calm Calm - N/A Rain Light Rain
11:35 PM 71.6 °F - 64.4 °F 78% 29.91 in 10.0 mi Calm Calm - N/A   Light Drizzle
11:55 PM 71.6 °F - 64.4 °F 78% 29.90 in 10.0 mi South 3.5 mph - N/A   Light Drizzle